Regional Weather Roundup
Issued by NWS Jackson, KY

Home | Current Version | Previous Version | Text Only | Print | Product List | Glossary Off
Versions: 1 2 3 4 5 6 7 8 9 10 11 12 13 14 15 16 17 18 19 20 21 22 23 24 25 26 27 28 29 30 31 32 33 34 35 36 37 38 39 40 41 42 43 44 45 46 47 48 49 50

000
ASUS43 KJKL 220105
RWRJKL

EAST KENTUCKY HOURLY WEATHER ROUNDUP
NATIONAL WEATHER SERVICE JACKSON KY
900 PM EDT SUN SEP 21 2014

NOTE: "FAIR" INDICATES FEW OR NO CLOUDS BELOW 12,000 FEET WITH
NO SIGNIFICANT WEATHER AND/OR OBSTRUCTIONS TO VISIBILITY.

* THESE REPORTS ARE NOT UNDER NWS QUALITY CONTROL AND MAY NOT
  REPORT WEATHER SUCH AS PRECIPITATION AND FOG.

KYZ079-080-083-085-087-088-110-112-115-119-120-220200
...EASTERN KENTUCKY...

CITY           SKY/WX    TMP DP  RH WIND       PRES   REMARKS
JACKSON        CLEAR     66  47  50 NW8       29.97R
LONDON         CLEAR     69  47  45 NW7       29.99R
SOMERSET*      CLEAR     66  46  48 NW5       30.00R
MONTICELLO*    CLEAR     67  50  54 NW5       30.01R
MIDDLESBORO*   PTCLDY    73  60  63 NW9G16    29.97R
HARLAN APT*    PTCLDY    70  50  49 MISG      29.98R
PIKEVILLE APT* CLEAR     66  50  55 W8        29.96R
BIG SANDY*     CLEAR     68  50  52 NW5       29.94R
MOREHEAD APT*  CLEAR     64  48  55 NW5       29.98R
$$

KYZ035-036-041-042-044-050-067-078-099-220200
...CENTRAL KENTUCKY...

CITY           SKY/WX    TMP DP  RH WIND       PRES   REMARKS
MT STERLING*   CLEAR     64  50  59 NW6       29.99R
FLEMING/MASON* MOCLDY    66  49  53 NW12G24   29.99R
DANVILLE*      CLEAR     64  48  55 CALM      30.00R
RICHMOND*      CLEAR     64  46  52 NW5       29.98R
LEXINGTON      CLEAR     66  49  54 NW6       29.99R
FRANKFORT      CLEAR     66  49  54 NW9       29.98R
$$

KYZ091>093-OHZ055-061-077-WVZ005-015-034-035-042-220200
...SOUTHERN OHIO/WEST VIRGINIA...

CITY           SKY/WX    TMP DP  RH WIND       PRES   REMARKS
COVINGTON      PTCLDY    64  47  53 NW16G24   29.99R
COLUMBUS       PTCLDY    63  49  60 NW22      29.92R
DAYTON         MOCLDY    60  50  69 NW15      30.00R
WILMINGTON     CLEAR     61  47  59 NW15      29.96R
HUNTINGTON     CLEAR     66  47  50 W7        29.91R
CHARLESTON     CLEAR     70  45  40 W10       29.89R
PINEVILLE*     MOCLDY    66  66 100 MISG      29.98R FOG
BECKLEY        PTCLDY    63  57  81 NW8       29.94R
BLUEFIELD      PTCLDY    65  59  81 W6        29.95R
$$

VAZ002-007-008-TNZ017-027-036-066-071-220200
...SOUTHWEST VIRGINIA/EAST TENNESSEE...

CITY           SKY/WX    TMP DP  RH WIND       PRES   REMARKS
WISE*          MOCLDY    64  63  94 NW9       30.00R
JONESVILLE*    PTCLDY    70  64  83 W6        29.97R
ABINGDON*      CLOUDY    69  68  98 W5        29.94S FOG
BRISTOL        MOCLDY    69  66  90 CALM      29.92S
KNOXVILLE      MOCLDY    70  68  93 SW7       29.94R
OAK RIDGE      PTCLDY    73  69  87 CALM      29.96R
CROSSVILLE     MOCLDY    70  65  84 W7        30.02R
NASHVILLE      PTCLDY    74  49  41 N10       30.01R
$$

...KEY TO REMARKS...
VSB - VISIBILITY IN MILES
WCI - WIND CHILL INDEX
HX  - HEAT INDEX

$$


USA.gov is the U.S. government's official web portal to all federal, state and local government web resources and services.